LKNA Weather Reports


time (UTC)temp
F
wind
direction
speed
knots
gust
knots
rain 1hr
in
rain 24hr
in
rain mn
in
humidity
%
barometer
mb
20260507203110 55 300 6.1 0.0 0.00 0.00 0.00 66 1014.0
20260507202036 57 300 6.1 0.0 0.00 0.00 0.00 58
20260507200105 57 300 7.0 0.0 0.00 0.00 0.00 58 1014.0
20260507193109 59 290 4.3 0.0 0.00 0.00 0.00 54 1013.0
20260507192135 59 290 4.3 0.0 0.00 0.00 0.00 54
20260507190240 59 290 4.3 0.0 0.00 0.00 0.00 54 1013.0
20260507183110 59 280 4.3 0.0 0.00 0.00 0.00 58 1013.0
20260507182033 61 290 4.3 0.0 0.00 0.00 0.00 51
20260507180113 59 290 5.2 0.0 0.00 0.00 0.00 62 1013.0
20260507173111 59 290 6.1 0.0 0.00 0.00 0.00 58 1012.0
20260507172033 61 280 10.4 0.0 0.00 0.00 0.00 51
20260507170248 63 280 8.7 0.0 0.00 0.00 0.00 48 1012.0
20260507163110 63 270 7.8 0.0 0.00 0.00 0.00 51 1012.0
20260507162333 63 270 6.1 0.0 0.00 0.00 0.00 55
20260507160234 63 280 5.2 0.0 0.00 0.00 0.00 55 1012.0
20260507153358 61 30 4.3 0.0 0.00 0.00 0.00 63 1012.0
20260507153110 61 30 4.3 0.0 0.00 0.00 0.00 63 1012.0
20260507152040 63 10 6.1 0.0 0.00 0.00 0.00 55
20260507150113 63 10 5.2 0.0 0.00 0.00 0.00 59 1012.0
20260507143110 59 220 10.4 0.0 0.00 0.00 0.00 62 1012.0
20260507142035 64 200 6.1 0.0 0.00 0.00 0.00 45
20260507141018 64 210 6.1 0.0 0.00 0.00 0.00 42 1012.0
20260507140240 64 210 6.1 0.0 0.00 0.00 0.00 42 1012.0
20260507133109 64 160 6.1 0.0 0.00 0.00 0.00 52 1012.0
20260507132135 64 200 10.4 0.0 0.00 0.00 0.00 42
20260507130112 64 180 8.7 0.0 0.00 0.00 0.00 42 1012.0
20260507123109 64 210 11.3 0.0 0.00 0.00 0.00 42 1012.0
20260507122033 66 210 12.2 0.0 0.00 0.00 0.00 42
20260507120241 66 210 12.2 0.0 0.00 0.00 0.00 39 1012.0
20260507113110 64 200 10.4 0.0 0.00 0.00 0.00 45 1012.0
20260507112049 64 220 7.8 0.0 0.00 0.00 0.00 45
20260507110105 66 220 7.8 0.0 0.00 0.00 0.00 45 1012.0
20260507103109 64 260 8.7 0.0 0.00 0.00 0.00 48 1012.0
20260507102233 63 210 7.8 0.0 0.00 0.00 0.00 48
20260507100233 63 210 8.7 0.0 0.00 0.00 0.00 48 1012.0
20260507093110 61 240 7.0 0.0 0.00 0.00 0.00 55 1012.0
20260507092034 59 230 6.1 0.0 0.00 0.00 0.00 62
20260507090119 59 230 7.0 0.0 0.00 0.00 0.00 62 1012.0
20260507083110 57 250 8.7 0.0 0.00 0.00 0.00 67 1011.0
20260507082033 57 250 10.4 0.0 0.00 0.00 0.00 62
20260507080112 57 260 8.7 0.0 0.00 0.00 0.00 67 1011.0
20260507073110 55 260 8.7 0.0 0.00 0.00 0.00 71 1011.0
20260507072034 55 230 10.4 0.0 0.00 0.00 0.00 71
20260507070242 55 240 8.7 0.0 0.00 0.00 0.00 71 1011.0
20260507063110 55 230 7.0 0.0 0.00 0.00 0.00 76 1011.0
20260507062034 54 240 10.4 0.0 0.00 0.00 0.00 76
20260507060113 54 240 10.4 0.0 0.00 0.00 0.00 81 1010.0
20260507053110 54 230 10.4 0.0 0.00 0.00 0.00 81 1010.0
20260507052033 54 220 7.8 0.0 0.00 0.00 0.00 81
20260507050113 54 220 7.8 0.0 0.00 0.00 0.00 81 1010.0
20260507043110 54 240 7.8 0.0 0.00 0.00 0.00 87 1009.0
20260507042235 52 240 7.8 0.0 0.00 0.00 0.00 93
20260507040239 54 250 7.0 0.0 0.00 0.00 0.00 87 1009.0
20260507033110 54 230 6.1 0.0 0.00 0.00 0.00 87 1009.0
20260507032034 52 230 6.1 0.0 0.00 0.00 0.00 93
20260507030105 52 240 6.1 0.0 0.00 0.00 0.00 93 1009.0
20260507023110 52 220 7.0 0.0 0.00 0.00 0.00 93 1009.0
20260507022032 52 220 6.1 0.0 0.00 0.00 0.00 93
20260507020105 52 210 6.1 0.0 0.00 0.00 0.00 93 1008.0
20260507013109 54 230 6.1 0.0 0.00 0.00 0.00 87 1008.0
20260507012132 54 230 6.1 0.0 0.00 0.00 0.00 81
20260507010105 54 230 6.1 0.0 0.00 0.00 0.00 87 1008.0
20260507003109 55 250 6.1 0.0 0.00 0.00 0.00 82 1007.0
20260507002033 54 250 6.1 0.0 0.00 0.00 0.00 81
20260507000241 55 250 6.1 0.0 0.00 0.00 0.00 82 1007.0
20260506233110 57 250 10.4 0.0 0.00 0.00 0.00 76 1007.0
20260506232033 55 280 10.4 0.0 0.00 0.00 0.00 82
20260506230106 55 280 10.4 0.0 0.00 0.00 0.00 82 1006.0
20260506223111 59 270 10.4 0.0 0.00 0.00 0.00 72 1006.0
20260506222306 59 240 7.8 0.0 0.00 0.00 0.00 72
20260506220105 59 240 7.0 0.0 0.00 0.00 0.00 72 1005.0
20260506213110 61 170 7.8 0.0 0.00 0.00 0.00 63 1005.0
20260506212055 61 130 10.4 0.0 0.00 0.00 0.00 63
20260506210113 61 120 8.7 0.0 0.00 0.00 0.00 63 1005.0